QPF
0.00 0.00 0.00 0.00 0.00 0.00 0.00 0.00 0.00 0.00 0.00 0.00 0.00 0.00 0.00 0.00 0.00 0.00 0.00 0.00 0.00 0.00 0.00 0.00 0.00 0.00 0.00 0.00 0.00 0.00 0.00 0.00 0.00 0.00 0.00 0.00 0.00 0.00 0.00 0.00 0.00 0.01 0.00 0.00
0.00 0.00 0.00 0.00 0.00 0.00 0.00 0.00 0.00 0.00 0.00 0.00 0.00 0.00 0.00 0.00 0.00 0.00 0.00 0.00 0.00 0.00 0.00 0.00 0.00 0.00 0.00 0.00 0.00 0.00 0.00 0.00 0.00 0.00 0.00 0.00 0.00 0.00 0.00 0.00 0.00 0.00 0.00 0.00
0.00 0.00 0.00 0.00 0.00 0.00 0.00 0.00 0.00 0.00 0.00 0.00 0.00 0.00 0.00 0.00 0.00 0.00 0.00 0.00 0.00 0.00 0.00 0.00 0.00 0.00 0.00 0.00 0.00 0.00 0.00 0.00 0.00 0.00 0.00 0.00 0.00 0.00 0.00 0.00 0.00 0.00 0.00 0.00
0.00 0.00 0.00 0.00 0.00 0.00 0.00 0.00 0.00 0.00 0.00 0.00 0.00 0.00 0.00 0.00 0.00 0.00 0.00 0.00 0.00 0.00 0.00 0.00 0.00 0.00 0.00 0.00 0.00 0.00 0.00 0.00 0.00 0.00 0.00 0.00 0.00 0.00 0.00 0.00 0.00 0.00 0.00 0.00
0.00 0.00 0.00 0.00 0.00 0.00 0.00 0.00 0.00 0.00 0.00 0.00 0.00 0.00 0.00 0.00 0.00 0.00 0.00 0.00 0.00 0.00 0.00 0.00 0.00 0.00 0.00 0.00 0.00 0.00 0.00 0.00 0.00 0.00 0.00 0.00 0.00 0.00 0.00 0.00 0.00 0.00 0.00 0.00
0.00 0.00 0.00 0.00 0.00 0.00 0.00 0.00 0.00 0.00 0.00 0.00 0.00 0.00 0.00 0.00 0.00 0.00 0.00 0.00 0.00 0.00 0.00 0.00 0.00 0.00 0.00 0.00 0.00 0.00 0.00 0.00 0.00 0.00 0.00 0.00 0.00 0.00 0.00 0.00 0.00 0.00 0.00 0.00
0.00 0.00 0.00 0.00 0.00 0.00 0.00 0.00 0.00 0.00 0.00 0.00 0.00 0.00 0.00 0.00 0.00 0.00 0.00 0.00 0.00 0.00 0.00 0.00 0.00 0.00 0.00 0.00 0.00 0.00 0.00 0.00 0.00 0.00 0.00 0.00 0.00 0.00 0.00 0.00 0.00 0.00 0.00 0.00
0.00 0.00 0.00 0.00 0.00 0.00 0.00 0.00 0.00 0.00 0.00 0.00 0.00 0.00 0.00 0.00 0.00 0.00 0.00 0.00 0.00 0.00 0.00 0.00 0.00 0.00 0.00 0.00 0.00 0.00 0.00 0.00 0.00 0.00 0.00 0.00 0.00 0.00 0.00 0.00 0.00 0.00 0.00 0.00
0.00 0.00 0.00 0.00 0.00 0.00 0.00 0.00 0.00 0.00 0.00 0.00 0.00 0.00 0.00 0.00 0.00 0.00 0.00 0.00 0.00 0.00 0.00 0.00 0.00 0.00 0.00 0.00 0.00 0.00 0.00 0.00 0.00 0.00 0.00 0.00 0.00 0.00 0.00 0.00 0.00 0.00 0.00 0.00
0.00 0.00 0.00 0.00 0.00 0.00 0.00 0.00 0.00 0.00 0.00 0.00 0.00 0.00 0.00 0.00 0.00 0.00 0.00 0.00 0.00 0.00 0.00 0.00 0.00 0.00 0.00 0.00 0.00 0.00 0.00 0.00 0.00 0.00 0.00 0.00 0.00 0.00 0.00 0.00 0.00 0.00 0.00 0.00
0.00 0.00 0.00 0.00 0.00 0.00 0.00 0.00 0.00 0.00 0.00 0.00 0.00 0.00 0.00 0.00 0.00 0.00 0.00 0.00 0.00 0.00 0.00 0.00 0.00 0.00 0.00 0.00 0.00 0.00 0.00 0.00 0.00 0.00 0.02 0.00 0.00 0.00 0.00 0.00 0.00 0.00 0.00 0.00
0.00 0.00 0.00 0.00 0.00 0.00 0.00 0.00 0.00 0.00 0.00 0.00 0.00 0.00 0.00 0.00 0.00 0.00 0.00 0.00 0.00 0.00 0.00 0.00 0.00 0.00 0.00 0.00 0.00 0.00 0.00 0.00 0.01 0.01 0.03 0.00 0.00 0.00 0.00 0.00 0.00 0.00 0.00 0.00
0.00 0.00 0.00 0.00 0.00 0.00 0.00 0.00 0.00 0.00 0.00 0.00 0.00 0.00 0.00 0.00 0.00 0.00 0.00 0.00 0.00 0.00 0.00 0.00 0.00 0.00 0.00 0.00 0.00 0.00 0.00 0.00 0.01 0.03 0.03 0.01 0.00 0.00 0.00 0.00 0.00 0.00 0.00 0.00
0.00 0.00 0.00 0.00 0.00 0.00 0.00 0.00 0.00 0.00 0.00 0.00 0.00 0.00 0.00 0.00 0.00 0.00 0.00 0.00 0.00 0.00 0.00 0.00 0.00 0.00 0.00 0.00 0.00 0.00 0.00 0.01 0.02 0.02 0.02 0.00 0.00 0.00 0.00 0.00 0.00 0.00 0.00 0.00
0.00 0.00 0.00 0.00 0.00 0.00 0.00 0.00 0.00 0.00 0.00 0.00 0.00 0.00 0.00 0.00 0.00 0.00 0.00 0.00 0.00 0.00 0.00 0.00 0.00 0.00 0.00 0.00 0.00 0.00 0.00 0.01 0.02 0.02 0.01 0.02 0.00 0.00 0.00 0.00 0.00 0.00 0.00 0.00
0.00 0.00 0.00 0.00 0.00 0.00 0.00 0.00 0.00 0.00 0.00 0.00 0.00 0.00 0.00 0.00 0.00 0.00 0.00 0.00 0.00 0.00 0.00 0.00 0.00 0.00 0.00 0.00 0.00 0.00 0.00 0.02 0.08 0.06 0.03 0.04 0.01 0.00 0.00 0.00 0.00 0.00 0.00 0.00
0.00 0.00 0.00 0.00 0.00 0.00 0.00 0.00 0.00 0.00 0.00 0.00 0.00 0.00 0.00 0.00 0.00 0.00 0.00 0.00 0.00 0.00 0.00 0.00 0.00 0.00 0.00 0.00 0.00 0.00 0.02 0.06 0.08 0.04 0.04 0.06 0.03 0.01 0.00 0.00 0.00 0.00 0.00 0.00
0.00 0.00 0.00 0.00 0.00 0.00 0.00 0.00 0.00 0.00 0.00 0.00 0.00 0.00 0.00 0.00 0.00 0.00 0.00 0.00 0.00 0.00 0.00 0.00 0.00 0.00 0.00 0.00 0.00 0.00 0.02 0.04 0.09 0.10 0.06 0.01 0.01 0.01 0.00 0.00 0.00 0.00 0.00 0.00
0.00 0.00 0.00 0.00 0.00 0.00 0.00 0.00 0.00 0.00 0.00 0.00 0.00 0.00 0.00 0.00 0.00 0.00 0.00 0.00 0.00 0.00 0.00 0.00 0.00 0.00 0.00 0.00 0.00 0.00 0.02 0.05 0.06 0.07 0.04 0.01 0.00 0.00 0.00 0.00 0.00 0.00 0.00 0.01
0.00 0.00 0.00 0.00 0.00 0.00 0.00 0.00 0.00 0.00 0.00 0.00 0.00 0.00 0.00 0.00 0.00 0.00 0.00 0.00 0.00 0.00 0.00 0.00 0.00 0.00 0.00 0.00 0.00 0.00 0.01 0.01 0.04 0.04 0.02 0.00 0.00 0.00 0.00 0.00 0.00 0.01 0.06 0.12
0.00 0.00 0.00 0.00 0.00 0.00 0.00 0.00 0.00 0.00 0.00 0.00 0.00 0.00 0.00 0.00 0.00 0.00 0.00 0.00 0.00 0.00 0.00 0.00 0.00 0.00 0.00 0.00 0.00 0.00 0.01 0.01 0.03 0.04 0.02 0.01 0.00 0.00 0.00 0.00 0.03 0.14 0.17 0.15
0.02 0.01 0.01 0.00 0.00 0.00 0.00 0.00 0.00 0.00 0.00 0.00 0.00 0.00 0.01 0.01 0.01 0.00 0.00 0.00 0.00 0.00 0.00 0.00 0.00 0.00 0.00 0.00 0.00 0.01 0.02 0.05 0.04 0.02 0.03 0.05 0.08 0.08 0.04 0.03 0.15 0.20 0.14 0.12
0.02 0.02 0.01 0.00 0.00 0.00 0.00 0.00 0.02 0.01 0.00 0.00 0.00 0.00 0.00 0.00 0.01 0.01 0.00 0.00 0.00 0.00 0.00 0.00 0.00 0.00 0.00 0.00 0.03 0.06 0.07 0.10 0.10 0.14 0.23 0.44 0.71 0.57 0.44 0.16 0.11 0.06 0.04 0.04
0.01 0.00 0.01 0.03 0.05 0.03 0.01 0.01 0.00 0.01 0.01 0.01 0.01 0.01 0.00 0.00 0.00 0.00 0.00 0.00 0.00 0.00 0.00 0.00 0.00 0.00 0.00 0.04 0.05 0.07 0.06 0.09 0.17 0.40 0.49 0.57 0.85 0.34 0.07 0.03 0.04 0.04 0.03 0.01
0.02 0.01 0.01 0.00 0.01 0.03 0.01 0.00 0.00 0.00 0.00 0.01 0.02 0.01 0.01 0.01 0.00 0.00 0.00 0.00 0.00 0.00 0.00 0.00 0.00 0.00 0.01 0.05 0.08 0.11 0.10 0.08 0.09 0.09 0.06 0.02 0.02 0.03 0.03 0.03 0.02 0.01 0.00 0.00
0.01 0.00 0.00 0.01 0.03 0.03 0.02 0.01 0.00 0.01 0.00 0.01 0.00 0.00 0.00 0.00 0.00 0.00 0.00 0.00 0.00 0.00 0.00 0.00 0.01 0.03 0.07 0.13 0.16 0.17 0.10 0.05 0.02 0.01 0.01 0.01 0.03 0.04 0.02 0.02 0.02 0.02 0.01 0.00
MSLP
1002.19 1002.57 1002.87 1002.99 1003.31 1003.06 1003.62 1003.56 1003.80 1003.69 1004.39 1005.63 1006.45 1007.35 1007.72 1008.20 1008.77 1009.10 1009.17 1009.61 1010.19 1010.66 1010.99 1011.42 1011.91 1012.45 1013.04 1013.45 1013.96 1014.36 1014.87 1015.16 1015.58 1015.97 1016.27 1016.43 1016.58 1016.48 1016.41 1016.21 1016.36 1016.49 1016.59 1016.74
1002.93 1002.40 1002.00 1002.17 1002.58 1002.93 1003.33 1003.71 1003.24 1003.48 1003.85 1004.95 1006.51 1007.21 1007.41 1007.72 1007.72 1008.01 1008.50 1009.20 1009.64 1010.46 1011.04 1011.45 1011.76 1012.26 1012.87 1013.31 1013.74 1014.23 1014.53 1014.96 1015.25 1015.46 1015.83 1016.06 1016.11 1016.09 1016.00 1015.92 1016.16 1016.33 1016.40 1016.56
1002.42 1001.56 1001.54 1001.92 1001.84 1002.39 1002.39 1002.71 1002.81 1002.84 1003.76 1005.07 1006.76 1008.16 1007.91 1007.68 1007.76 1007.96 1008.20 1008.14 1008.60 1009.43 1010.52 1011.23 1011.69 1012.10 1012.55 1013.14 1013.50 1013.94 1014.30 1014.62 1014.91 1015.22 1015.67 1015.97 1016.03 1016.09 1016.13 1016.14 1016.36 1016.38 1016.32 1016.46
1002.05 1001.19 1001.34 1001.44 1001.48 1001.80 1002.16 1001.90 1001.62 1002.60 1003.78 1005.39 1005.95 1007.88 1007.82 1007.36 1007.62 1007.58 1007.65 1008.09 1008.36 1008.84 1009.40 1010.42 1011.11 1011.77 1012.25 1012.61 1013.02 1013.52 1013.99 1014.37 1014.65 1015.00 1015.39 1015.71 1015.92 1016.28 1016.25 1016.16 1016.25 1016.30 1016.19 1016.32
1001.13 1000.81 1000.71 1000.97 1000.52 1000.85 1001.07 1001.07 1001.61 1002.30 1003.60 1005.03 1006.42 1007.17 1006.70 1007.38 1007.62 1007.02 1006.77 1006.72 1007.02 1007.77 1008.46 1009.37 1010.06 1010.71 1011.38 1011.98 1012.46 1012.89 1013.51 1013.98 1014.30 1014.73 1015.02 1015.57 1015.99 1016.09 1016.03 1016.24 1016.37 1016.44 1016.41 1016.33
1000.80 1000.09 1000.03 1000.00 999.76 1000.18 1000.13 1000.89 1001.60 1003.11 1004.76 1006.04 1005.93 1006.41 1006.76 1006.29 1005.11 1005.40 1005.74 1006.00 1006.49 1007.13 1007.73 1008.44 1009.22 1009.92 1010.61 1011.51 1012.11 1012.62 1013.10 1013.56 1013.98 1014.43 1014.86 1015.32 1015.91 1016.15 1016.26 1016.47 1016.71 1016.58 1016.22 1016.28
1000.92 1000.12 999.60 999.29 999.70 999.58 1000.28 1001.71 1002.97 1004.54 1006.06 1006.17 1005.28 1005.98 1004.53 1003.93 1003.63 1003.62 1004.13 1004.76 1005.39 1006.16 1007.08 1007.81 1008.77 1009.59 1010.12 1010.85 1011.50 1012.15 1012.67 1013.27 1013.69 1014.14 1014.56 1014.97 1015.33 1015.68 1016.09 1016.33 1016.53 1016.58 1016.54 1016.60
1001.30 1000.36 999.10 998.78 999.14 999.46 1000.22 1001.38 1003.19 1004.33 1005.14 1005.06 1004.88 1004.13 1002.28 1001.68 1001.53 1002.42 1002.82 1003.43 1004.54 1005.49 1006.14 1006.83 1007.65 1008.45 1009.18 1009.87 1010.70 1011.36 1012.01 1012.68 1013.32 1013.80 1014.09 1014.39 1014.77 1015.22 1015.46 1015.86 1016.13 1016.37 1016.57 1016.48
1000.87 1000.06 998.79 998.12 998.36 999.01 999.80 1000.66 1001.54 1003.53 1005.10 1005.35 1004.23 1002.93 1001.27 1000.56 1001.34 1001.94 1002.69 1003.65 1003.95 1004.66 1005.48 1006.20 1006.99 1007.54 1008.25 1008.93 1009.51 1010.21 1010.97 1011.69 1012.40 1013.02 1013.65 1014.19 1014.51 1014.97 1015.32 1015.55 1015.81 1016.06 1016.17 1016.25
999.90 1000.38 998.48 997.79 997.94 997.94 998.37 999.43 1001.73 1003.39 1004.81 1005.48 1004.58 1003.61 1002.22 1001.73 1001.52 1001.77 1002.48 1003.02 1003.44 1004.06 1004.78 1005.53 1006.21 1006.57 1007.13 1007.51 1008.30 1009.21 1010.00 1010.67 1011.36 1012.23 1013.01 1013.70 1014.01 1014.33 1014.95 1015.21 1015.51 1015.66 1015.86 1015.98
998.95 999.80 998.40 998.42 997.76 997.89 998.38 999.25 1000.99 1002.36 1003.84 1004.77 1004.75 1003.90 1001.17 1000.68 1000.77 1001.34 1001.74 1001.83 1002.91 1003.51 1003.90 1004.47 1005.15 1005.88 1006.36 1006.93 1007.89 1008.52 1009.54 1010.26 1010.92 1011.73 1012.60 1013.20 1013.51 1013.92 1014.36 1014.93 1015.16 1015.27 1015.53 1015.74
997.63 998.79 999.09 998.20 997.18 997.00 996.84 998.41 1000.10 1002.07 1003.70 1004.09 1003.80 1002.47 1000.46 1000.02 1000.24 1000.53 1001.16 1001.55 1001.94 1002.73 1003.17 1003.72 1004.31 1005.04 1005.94 1006.55 1007.32 1007.81 1008.84 1009.64 1010.22 1011.13 1011.91 1012.49 1013.00 1013.59 1014.04 1014.40 1014.62 1014.88 1015.18 1015.40
996.38 997.77 998.91 998.36 997.57 996.45 996.59 997.53 998.83 1000.18 1001.76 1003.08 1003.56 1002.06 1000.33 1000.34 1000.24 1000.28 1000.94 1001.40 1001.65 1002.34 1002.99 1003.13 1003.84 1004.60 1005.02 1005.67 1006.55 1007.26 1008.10 1008.87 1009.92 1010.72 1011.73 1012.34 1012.67 1013.05 1013.45 1013.76 1014.08 1014.41 1014.65 1014.85
995.12 996.65 997.63 997.70 997.12 996.45 996.37 996.67 997.72 999.13 1001.17 1002.05 1001.77 1001.23 1000.81 1000.81 1000.82 1000.85 1000.92 1001.15 1001.45 1001.60 1002.27 1002.65 1003.27 1003.77 1004.20 1004.93 1005.72 1006.55 1007.45 1008.30 1009.29 1010.09 1010.83 1011.38 1011.86 1012.41 1012.81 1013.10 1013.59 1013.85 1014.11 1014.38
994.81 996.27 996.88 996.73 996.15 995.97 995.49 995.63 996.74 998.02 998.86 1000.02 1000.27 1000.52 1000.23 1000.17 1000.06 1000.10 1000.20 1000.50 1001.06 1001.37 1002.01 1002.26 1002.74 1003.29 1003.84 1004.62 1005.26 1006.27 1007.17 1007.83 1008.34 1009.32 1010.31 1011.06 1011.45 1011.85 1012.29 1012.69 1012.98 1013.20 1013.54 1013.84
994.58 995.80 996.10 996.73 995.98 995.62 995.00 995.01 995.60 996.74 997.94 998.51 998.84 999.28 998.84 998.98 999.50 1000.17 1000.04 1000.35 1000.71 1001.18 1001.48 1002.25 1002.52 1002.79 1003.20 1003.61 1004.38 1005.11 1005.89 1007.09 1008.33 1009.16 1009.59 1010.53 1011.16 1011.74 1011.93 1012.04 1012.38 1012.73 1012.91 1013.24
994.99 995.84 996.83 997.26 996.29 995.82 995.40 994.72 995.07 995.79 996.92 997.84 998.50 998.13 998.37 999.41 999.76 999.79 999.95 1000.36 1000.51 1000.72 1001.17 1001.62 1002.25 1002.66 1002.98 1003.27 1003.68 1004.63 1005.46 1006.43 1007.23 1007.74 1008.74 1009.88 1010.60 1011.10 1011.32 1011.32 1011.90 1012.24 1012.50 1012.78
995.37 996.07 997.08 997.69 996.87 996.45 995.56 994.67 995.20 996.85 997.48 997.97 997.81 997.38 997.51 998.02 998.78 999.26 999.22 999.40 999.92 1000.11 1000.74 1001.15 1001.71 1002.16 1002.09 1002.13 1003.18 1004.40 1005.34 1005.98 1006.91 1008.31 1009.13 1009.39 1009.67 1010.32 1010.69 1011.05 1011.43 1011.61 1011.87 1012.38
995.39 996.14 998.37 998.65 998.24 997.40 996.33 996.83 996.65 997.12 998.52 998.26 997.73 997.50 997.62 998.03 999.01 999.71 999.36 999.09 999.40 999.85 1000.23 1000.71 1000.91 1001.36 1001.50 1001.92 1002.49 1003.54 1004.80 1005.53 1006.82 1007.81 1008.29 1008.39 1008.94 1009.48 1010.12 1010.65 1010.69 1010.91 1011.59 1011.97
995.94 997.05 997.59 999.39 999.49 999.06 998.93 998.00 997.24 996.89 999.50 999.29 998.67 998.34 998.65 998.56 999.80 1000.07 999.35 999.13 999.68 1000.04 1000.01 1000.40 1000.77 1001.07 1001.33 1001.75 1002.50 1003.41 1004.25 1005.22 1006.18 1007.02 1007.43 1007.72 1008.07 1008.91 1009.50 1009.68 1009.85 1010.31 1011.04 1011.58
998.79 999.23 1000.55 1000.96 1000.97 1000.48 999.53 998.64 997.40 999.18 1001.17 999.86 999.39 999.90 999.88 999.92 1000.48 1000.39 1000.00 999.90 999.81 999.98 1000.05 1000.22 1000.54 1000.73 1001.08 1001.74 1002.46 1003.41 1004.22 1004.82 1005.27 1006.62 1007.56 1008.36 1008.66 1008.64 1008.48 1009.00 1009.62 1010.24 1010.79 1011.57
1001.31 1002.12 1003.30 1002.33 1002.17 1002.47 1001.05 999.72 1000.13 1001.43 1000.80 1000.63 1000.64 1000.55 1000.76 1001.22 1001.34 1000.99 1000.52 1001.00 1000.95 1000.39 1000.38 1000.44 1000.72 1000.99 1001.12 1001.45 1002.33 1003.61 1004.86 1005.85 1006.43 1007.76 1008.93 1009.78 1010.44 1010.22 1009.50 1008.74 1009.63 1010.64 1011.20 1011.56
1002.42 1003.05 1004.15 1004.95 1005.11 1004.14 1003.20 1002.46 1002.23 1001.77 1001.63 1001.37 1001.48 1001.39 1001.50 1001.93 1001.98 1001.87 1001.49 1001.04 1001.13 1001.13 1000.71 1000.59 1000.83 1001.18 1001.60 1001.94 1003.08 1004.37 1005.80 1006.03 1007.12 1007.76 1008.74 1009.04 1008.74 1010.88 1011.08 1009.72 1010.14 1010.38 1010.85 1011.19
1002.64 1003.04 1004.06 1004.56 1005.44 1005.11 1003.93 1002.56 1002.66 1002.32 1001.99 1002.17 1002.46 1003.12 1002.28 1002.36 1002.19 1001.28 1001.43 1001.85 1002.00 1001.98 1001.34 1000.84 1001.43 1001.64 1002.44 1003.23 1004.02 1004.85 1005.62 1006.45 1007.28 1008.08 1008.68 1008.10 1008.29 1010.98 1011.39 1010.87 1010.57 1010.91 1011.19 1011.66
1002.54 1003.94 1003.58 1005.49 1004.18 1004.06 1004.00 1004.19 1002.48 1002.96 1002.51 1002.64 1002.61 1003.08 1002.76 1002.51 1002.32 1002.05 1002.48 1002.79 1003.00 1002.88 1002.36 1001.84 1001.72 1001.99 1003.22 1003.98 1004.73 1005.19 1005.73 1006.40 1007.11 1007.16 1007.55 1008.03 1008.25 1009.30 1010.28 1010.90 1011.46 1011.63 1012.25 1011.48
1003.23 1004.05 1004.48 1004.34 1003.96 1004.23 1005.01 1004.11 1003.34 1002.24 1002.82 1003.20 1003.76 1003.65 1003.42 1002.45 1002.85 1002.42 1001.40 1002.58 1003.54 1002.73 1002.70 1003.33 1003.92 1003.82 1004.46 1005.09 1005.60 1006.03 1006.30 1006.13 1006.78 1007.42 1007.48 1007.76 1008.22 1010.18 1010.32 1011.12 1012.56 1012.87 1012.58 1012.09
Thickness
5839 5817 5805 5823 5829 5834 5828 5823 5821 5836 5841 5823 5817 5813 5822 5827 5823 5820 5823 5820 5818 5814 5819 5821 5818 5816 5812 5809 5806 5803 5800 5798 5794 5789 5785 5782 5780 5780 5780 5779 5776 5773 5770 5767
5815 5803 5837 5847 5842 5832 5826 5814 5821 5840 5845 5829 5815 5810 5826 5829 5827 5829 5825 5821 5821 5813 5813 5815 5817 5816 5811 5809 5807 5804 5802 5799 5796 5794 5789 5786 5784 5781 5780 5779 5774 5772 5770 5766
5804 5829 5848 5840 5834 5824 5823 5817 5822 5830 5842 5829 5811 5789 5805 5824 5829 5829 5828 5834 5832 5820 5813 5813 5814 5813 5812 5808 5806 5804 5802 5801 5799 5795 5790 5786 5783 5780 5776 5774 5771 5768 5766 5763
5813 5841 5832 5828 5826 5829 5800 5839 5852 5839 5826 5779 5820 5757 5790 5813 5814 5824 5827 5826 5829 5825 5826 5820 5816 5811 5811 5810 5810 5808 5804 5800 5798 5795 5789 5784 5778 5772 5773 5772 5770 5766 5763 5759
5811 5823 5822 5816 5831 5842 5827 5850 5843 5842 5827 5806 5802 5771 5806 5798 5792 5809 5825 5835 5839 5835 5831 5824 5823 5819 5816 5815 5813 5810 5805 5800 5797 5792 5788 5781 5776 5775 5773 5768 5764 5762 5760 5757
5817 5846 5834 5836 5852 5848 5860 5848 5833 5819 5797 5763 5795 5786 5776 5790 5818 5826 5832 5841 5842 5836 5833 5830 5829 5826 5819 5816 5812 5808 5804 5799 5795 5790 5785 5779 5772 5768 5765 5761 5756 5755 5755 5752
5799 5814 5837 5849 5829 5845 5842 5805 5767 5770 5750 5750 5789 5784 5804 5824 5841 5843 5840 5843 5846 5841 5835 5829 5822 5817 5816 5812 5809 5804 5800 5793 5790 5785 5781 5777 5771 5766 5760 5756 5752 5750 5747 5744
5763 5764 5818 5840 5826 5819 5816 5806 5759 5749 5751 5772 5798 5780 5822 5852 5864 5857 5856 5854 5849 5841 5836 5831 5827 5822 5818 5815 5809 5805 5800 5793 5788 5783 5780 5776 5771 5765 5761 5755 5750 5746 5742 5740
5756 5768 5828 5838 5847 5835 5821 5795 5821 5783 5783 5765 5788 5817 5845 5858 5852 5852 5844 5839 5843 5844 5837 5832 5829 5827 5824 5820 5814 5811 5803 5797 5791 5785 5778 5772 5768 5764 5759 5754 5750 5744 5740 5737
5787 5765 5815 5837 5843 5844 5836 5840 5792 5770 5753 5754 5771 5790 5791 5824 5833 5841 5839 5836 5840 5843 5838 5836 5832 5833 5832 5832 5826 5817 5809 5802 5796 5788 5780 5772 5768 5764 5756 5751 5745 5741 5736 5733
5801 5781 5803 5818 5808 5811 5818 5812 5805 5796 5775 5750 5746 5765 5826 5838 5841 5838 5842 5851 5839 5838 5842 5841 5836 5835 5834 5832 5825 5819 5808 5801 5794 5786 5777 5770 5766 5761 5755 5748 5742 5739 5733 5728
5802 5778 5776 5795 5829 5841 5839 5820 5807 5771 5773 5769 5764 5771 5843 5846 5846 5851 5849 5851 5849 5845 5847 5847 5841 5837 5828 5826 5822 5817 5808 5800 5794 5784 5778 5770 5764 5756 5750 5745 5740 5735 5727 5723
5810 5767 5766 5776 5801 5829 5827 5829 5819 5802 5788 5769 5757 5771 5841 5841 5841 5846 5840 5844 5846 5841 5837 5842 5838 5833 5832 5828 5821 5815 5809 5801 5789 5782 5771 5764 5759 5754 5748 5742 5736 5730 5725 5720
5825 5780 5779 5769 5780 5812 5813 5827 5824 5808 5771 5771 5778 5802 5820 5825 5827 5834 5837 5839 5839 5841 5841 5841 5838 5835 5832 5829 5822 5813 5805 5799 5787 5779 5771 5764 5758 5751 5745 5739 5732 5727 5722 5715
5812 5776 5787 5799 5821 5820 5827 5832 5819 5809 5808 5794 5803 5802 5812 5822 5830 5835 5840 5841 5839 5839 5834 5835 5834 5832 5829 5823 5820 5810 5800 5793 5788 5778 5768 5757 5752 5746 5740 5734 5729 5725 5719 5712
5799 5782 5796 5798 5815 5824 5821 5831 5830 5826 5817 5819 5813 5806 5832 5840 5840 5830 5839 5836 5834 5837 5838 5829 5831 5834 5829 5826 5818 5813 5805 5792 5779 5771 5767 5755 5744 5737 5734 5731 5727 5721 5716 5709
5791 5785 5776 5770 5803 5806 5793 5817 5825 5831 5819 5819 5793 5820 5833 5826 5828 5827 5829 5830 5829 5832 5832 5828 5824 5823 5823 5821 5819 5810 5801 5791 5781 5776 5765 5752 5743 5735 5731 5730 5723 5716 5710 5703
5785 5781 5774 5770 5789 5758 5802 5833 5830 5806 5810 5811 5823 5830 5841 5837 5837 5833 5836 5833 5832 5833 5829 5825 5823 5818 5823 5826 5816 5803 5794 5787 5776 5762 5754 5749 5743 5736 5730 5723 5716 5711 5705 5697
5794 5784 5753 5752 5757 5786 5809 5801 5802 5796 5789 5810 5818 5828 5833 5834 5830 5823 5833 5836 5831 5830 5828 5827 5827 5824 5822 5822 5814 5801 5790 5782 5767 5757 5752 5748 5741 5735 5723 5713 5711 5706 5698 5691
5789 5777 5772 5748 5757 5750 5772 5792 5812 5815 5752 5800 5807 5811 5816 5823 5787 5798 5826 5828 5823 5822 5824 5821 5823 5822 5817 5814 5807 5797 5787 5775 5763 5754 5749 5743 5739 5726 5713 5710 5706 5700 5692 5685
5740 5742 5730 5728 5728 5745 5775 5789 5813 5751 5745 5786 5800 5795 5798 5793 5793 5802 5815 5816 5818 5816 5815 5819 5818 5817 5812 5805 5798 5786 5777 5769 5762 5749 5738 5727 5719 5713 5709 5705 5697 5692 5687 5675
5708 5705 5697 5713 5725 5718 5761 5778 5761 5759 5775 5779 5780 5780 5782 5779 5782 5789 5794 5792 5794 5803 5806 5808 5805 5803 5806 5803 5790 5774 5760 5747 5740 5725 5710 5698 5686 5678 5683 5692 5688 5678 5670 5665
5695 5695 5689 5689 5691 5716 5733 5743 5751 5757 5762 5768 5764 5771 5772 5768 5770 5776 5778 5785 5784 5783 5793 5797 5794 5789 5788 5787 5772 5754 5739 5735 5722 5713 5699 5693 5691 5666 5667 5673 5675 5671 5665 5660
5702 5705 5688 5695 5698 5703 5723 5742 5741 5747 5750 5753 5752 5747 5757 5757 5760 5772 5771 5767 5766 5770 5778 5786 5782 5778 5768 5760 5751 5741 5733 5722 5712 5701 5691 5695 5688 5665 5652 5657 5660 5655 5650 5645
5695 5689 5695 5681 5706 5709 5713 5714 5736 5735 5743 5742 5743 5741 5742 5744 5745 5754 5752 5751 5750 5752 5761 5769 5770 5766 5751 5740 5729 5724 5719 5710 5701 5699 5692 5686 5679 5668 5657 5649 5639 5637 5627 5634
5685 5682 5677 5682 5702 5699 5696 5709 5722 5732 5731 5728 5725 5727 5728 5739 5736 5745 5753 5746 5738 5746 5748 5742 5736 5737 5730 5721 5712 5705 5700 5702 5691 5684 5682 5675 5668 5642 5638 5628 5614 5610 5610 5609